Temperature
8 9 9 10 10 11 11 11 11 12 11 10 11 11 12 12 11 11 11 11 10 10 9 9 9 10 10 10 10 9 9 9 9 9 9 9 9 9 9 9 9 9 9 9
9 9 10 10 9 9 9 10 10 10 10 10 10 10 11 12 11 11 11 11 10 9 9 9 9 9 9 9 9 9 9 9 9 9 9 9 9 9 9 9 9 8 8 9
8 9 8 8 8 8 9 9 10 10 9 9 9 10 11 11 11 10 10 10 9 9 9 8 8 9 9 9 9 9 9 9 9 9 8 8 8 8 8 8 8 8 8 8
7 8 7 7 8 8 9 9 9 9 9 9 9 10 12 12 11 10 10 10 9 8 8 8 8 8 8 8 9 9 8 8 8 8 8 8 8 8 8 8 8 8 8 8
7 7 7 7 7 8 8 8 8 8 8 8 9 8 11 11 10 11 10 9 8 7 7 7 7 7 8 8 8 8 8 8 8 8 8 8 8 8 8 8 8 8 8 8
7 6 6 7 7 7 7 7 7 7 7 7 9 9 11 11 10 10 10 8 7 7 7 7 7 7 7 7 8 8 8 8 7 7 7 7 7 7 7 7 7 7 7 7
6 6 6 6 6 6 7 7 7 7 7 9 9 9 10 10 9 9 8 7 7 6 6 6 6 6 7 7 7 7 7 7 7 7 7 7 7 7 7 7 7 7 7 7
5 6 5 5 6 6 7 7 7 8 9 9 8 9 10 9 8 7 7 6 6 6 5 5 6 6 6 7 6 6 6 6 6 6 6 6 6 6 6 6 7 7 7 7
4 5 5 5 5 6 6 7 7 7 7 7 9 8 9 8 7 7 6 6 5 5 5 5 5 5 6 6 6 6 6 6 6 6 6 6 6 6 6 6 6 6 6 6
3 3 4 4 5 5 6 6 6 6 7 8 9 8 8 7 7 6 6 6 5 4 4 4 5 5 5 5 6 6 6 6 6 6 6 6 6 6 6 6 6 6 6 6
3 3 3 4 4 4 4 4 5 6 7 7 8 8 8 7 6 6 5 5 4 3 3 3 4 4 4 5 5 5 5 5 5 5 5 5 5 5 5 5 5 5 5 6
2 2 3 4 4 4 4 4 4 5 5 6 7 7 6 6 6 5 5 4 3 3 2 3 3 3 4 4 4 5 5 5 5 5 5 5 5 5 5 5 5 5 5 5
2 2 2 3 3 3 3 3 3 4 4 5 6 6 5 5 5 4 3 3 2 2 2 2 2 3 3 3 4 4 4 4 4 4 4 4 4 5 5 5 5 5 5 5
2 1 2 3 3 3 2 2 3 3 3 4 5 5 5 4 4 3 3 2 2 2 1 2 2 2 3 3 3 3 3 3 4 4 4 4 4 4 4 4 4 4 4 4
1 1 1 2 2 2 2 2 2 2 3 3 4 4 4 4 4 3 2 1 1 1 1 1 1 1 2 2 3 3 3 3 3 3 3 4 4 4 4 4 4 4 4 4
0 0 1 1 2 2 1 1 2 2 2 2 3 3 3 3 2 2 1 1 0 0 -0 0 0 1 1 2 2 2 2 3 3 3 3 3 3 3 3 3 3 3 3 3
-0 -0 0 1 1 1 1 1 1 1 1 2 2 2 2 2 2 1 0 -0 -0 -0 -0 -0 -0 0 1 1 2 2 2 2 2 2 2 2 3 3 3 3 3 3 3 3
-1 -1 -0 1 1 0 1 1 1 1 1 1 1 2 2 1 1 0 -0 -1 -1 -1 -1 -1 -0 -0 0 1 1 1 2 2 2 2 2 2 2 2 2 2 2 2 2 2
-1 -1 -0 0 0 1 1 -0 -0 -0 0 0 0 1 0 -0 0 0 -0 -1 -1 -1 -1 -1 -1 -1 -0 0 0 1 1 1 1 1 2 2 2 2 2 1 1 2 2 2
-1 -1 -0 -0 -0 -1 0 -1 -1 0 0 -0 -1 -0 -1 -1 1 0 -1 -2 -2 -2 -2 -2 -1 -1 -1 -0 -0 0 0 1 1 1 1 1 1 1 1 1 1 1 1 1
-2 -2 -1 -1 -1 -0 -1 -2 -1 -0 -1 -1 -2 -2 -2 -1 -1 -2 -2 -2 -2 -2 -2 -2 -2 -1 -1 -1 -0 -0 -0 0 0 0 0 1 1 1 0 0 0 0 0 0
-2 -2 -2 -2 -2 -2 -2 -2 -2 -2 -2 -3 -3 -3 -3 -3 -3 -2 -3 -3 -3 -2 -2 -2 -2 -2 -1 -1 -1 -1 -1 -0 -0 -0 -0 -0 -0 -0 -0 -0 -0 -0 -0 -0
-3 -3 -2 -2 -2 -2 -3 -3 -3 -3 -3 -3 -3 -3 -4 -4 -3 -3 -3 -3 -3 -3 -3 -3 -3 -3 -2 -2 -1 -1 -1 -1 -1 -0 -1 -1 -1 -1 -1 -1 -1 -1 -1 -1
-3 -4 -3 -3 -2 -3 -4 -4 -4 -4 -4 -4 -4 -4 -4 -4 -4 -4 -4 -4 -4 -4 -4 -4 -3 -3 -3 -2 -2 -2 -1 -1 -1 -1 -1 -1 -1 -1 -1 -1 -1 -1 -1 -1
-4 -4 -4 -3 -3 -3 -4 -4 -4 -4 -4 -4 -4 -4 -5 -5 -5 -5 -5 -5 -5 -4 -4 -4 -4 -4 -3 -3 -2 -2 -2 -2 -2 -2 -2 -2 -2 -2 -2 -2 -2 -2 -2 -2
-5 -5 -5 -4 -4 -4 -4 -5 -5 -5 -5 -5 -5 -5 -5 -5 -5 -5 -5 -5 -5 -5 -5 -5 -4 -4 -4 -4 -3 -3 -3 -2 -2 -2 -2 -2 -2 -2 -2 -2 -2 -2 -2 -2
Wind_Speed
5 8 11 13 14 11 9 11 13 10 5 8 14 16 15 13 12 13 12 11 11 10 9 8 8 8 8 8 8 8 8 8 7 5 5 5 5 4 4 4 5 6 6 7
6 12 13 10 10 11 12 13 13 9 6 8 12 17 16 16 15 14 13 12 11 10 8 7 7 8 9 9 8 8 9 9 8 7 6 5 5 4 4 4 5 6 6 7
11 7 7 9 10 11 14 15 13 10 7 8 10 14 14 11 12 12 13 12 11 10 9 8 7 8 8 9 9 8 9 9 9 8 6 5 4 3 4 4 4 5 6 6
8 7 6 9 11 12 13 11 11 10 8 7 6 9 10 9 10 10 10 10 9 9 8 7 7 8 8 8 8 8 9 9 9 9 8 9 7 6 6 6 5 5 5 6
6 5 7 9 9 10 8 6 9 11 11 10 10 9 10 7 9 9 7 7 7 6 6 7 6 7 7 7 7 8 8 9 9 9 9 9 8 6 5 5 6 5 5 5
7 5 5 6 5 7 4 3 5 7 7 10 12 11 9 6 7 6 5 5 5 5 5 5 4 5 5 6 6 7 8 8 9 9 9 9 9 8 7 7 6 5 4 4
5 4 2 3 3 5 5 4 3 5 7 9 6 9 8 4 3 5 4 4 3 3 4 4 3 3 4 6 6 7 7 8 8 9 9 9 9 9 9 8 7 6 4 4
4 5 3 2 5 5 8 8 7 6 7 6 6 9 4 2 2 2 2 2 2 2 2 3 3 3 3 4 6 7 7 8 8 9 9 8 8 7 6 7 6 6 5 5
4 4 3 5 5 5 6 8 5 4 5 6 7 5 5 1 2 2 2 2 2 1 1 2 2 2 2 3 4 7 7 7 8 8 8 8 8 7 7 7 6 5 5 5
4 6 5 4 3 3 5 4 3 5 5 7 7 7 3 2 2 2 3 3 3 2 1 0 1 1 1 2 3 4 7 7 7 7 7 6 7 7 7 6 7 6 6 6
4 5 4 3 3 4 2 3 4 5 5 6 6 3 2 2 2 2 3 4 4 3 2 0 0 0 0 1 1 2 4 6 6 7 7 7 6 6 6 6 6 6 5 5
3 4 5 6 4 4 4 4 4 4 5 5 5 3 4 4 3 4 5 5 4 3 3 2 1 1 1 1 1 1 2 3 5 6 7 7 6 6 6 6 5 5 5 5
3 3 4 3 1 1 1 2 3 4 4 5 6 5 4 5 6 6 5 5 4 3 3 3 3 2 2 1 1 0 1 2 3 4 5 6 6 6 6 6 5 5 5 5
4 4 6 7 6 4 5 6 5 4 4 5 7 8 7 7 7 7 6 5 5 4 4 4 4 3 3 2 1 1 0 1 2 4 4 5 5 5 6 5 5 5 5 5
3 5 6 8 9 6 6 5 5 6 7 7 8 9 9 9 8 7 6 5 4 5 5 5 5 4 4 3 2 1 1 0 1 3 4 4 4 4 4 5 5 5 5 4
3 4 5 7 6 4 3 5 5 5 6 8 9 9 8 8 6 5 5 5 4 5 4 5 5 5 4 3 2 2 1 1 1 2 3 3 4 4 4 4 4 4 4 4
3 3 3 4 5 3 3 5 4 4 4 5 6 8 8 7 6 5 6 5 5 5 5 5 5 5 4 4 3 2 1 1 1 1 2 2 3 4 4 4 4 4 4 4
4 4 3 3 2 2 1 4 4 4 4 4 6 7 7 7 6 5 5 4 5 6 5 5 5 5 5 4 3 2 1 0 1 1 1 2 3 3 4 4 4 4 4 4
4 3 2 2 2 3 3 6 6 5 4 6 7 8 8 8 5 5 6 6 5 6 5 5 5 4 4 3 2 1 1 1 1 0 1 1 2 3 4 4 4 4 4 3
1 1 1 1 1 2 5 10 10 4 3 8 8 9 8 7 5 6 8 8 7 6 5 5 4 4 3 3 2 1 1 1 0 0 0 1 2 3 3 3 3 3 3 3
2 1 1 2 2 2 7 10 5 1 6 11 9 8 7 5 5 7 8 8 7 6 6 5 4 3 3 3 2 1 1 1 1 1 1 1 1 2 2 3 3 3 3 3
2 1 1 2 2 3 7 6 3 6 9 10 9 9 7 7 8 8 7 7 7 7 6 6 5 4 4 3 2 2 2 2 2 1 2 2 2 2 2 3 2 3 3 3
2 2 2 1 2 4 5 6 7 8 9 9 9 8 7 8 8 8 8 7 7 7 6 6 5 5 5 4 3 2 2 2 2 2 2 2 3 3 2 2 3 2 3 2
3 4 2 2 4 6 7 8 8 8 8 8 8 8 7 7 7 8 7 7 7 6 6 5 5 5 5 5 4 3 3 2 2 3 2 2 3 3 2 1 1 1 2 2
4 3 3 4 6 7 6 8 9 9 9 9 8 8 7 7 7 7 7 7 6 5 5 5 5 5 5 5 5 5 4 3 3 3 2 2 2 2 1 1 1 0 1 2
3 3 3 5 7 7 8 10 10 9 9 8 8 8 7 6 6 6 6 6 5 5 5 5 5 5 5 5 5 5 5 4 3 2 2 2 1 1 1 1 1 2 1 1
Wind_Direction
194 208 217 219 221 241 252 248 253 256 245 241 248 257 259 257 252 249 247 243 240 243 243 233 218 206 202 198 195 194 192 187 182 181 182 179 182 182 181 171 183 191 187 189
208 228 234 235 230 235 242 250 257 265 255 257 265 266 263 255 248 245 245 244 241 243 235 226 216 203 200 197 195 196 194 189 187 188 185 187 179 185 180 174 181 192 189 188
231 241 232 221 223 229 238 243 251 259 274 263 275 272 252 245 239 241 243 242 241 237 234 224 216 207 200 197 196 196 196 191 189 184 174 168 164 163 174 184 189 194 192 188
242 250 238 231 231 227 244 244 251 253 255 259 246 275 258 241 240 241 241 238 238 235 233 228 216 208 202 201 197 196 195 191 188 182 182 181 181 181 190 191 191 191 193 191
247 242 234 240 241 226 240 251 242 244 247 258 242 252 265 236 246 246 243 240 241 233 229 223 216 207 200 194 193 194 193 190 188 188 186 186 186 185 180 181 183 185 187 191
262 258 245 246 254 226 217 228 236 231 233 245 236 233 261 233 247 257 252 250 248 230 220 213 204 194 191 188 186 188 190 190 189 189 190 191 187 182 176 178 180 186 188 193
267 247 240 236 234 204 202 196 213 216 219 240 218 227 250 264 269 257 254 254 251 223 204 194 183 181 184 189 187 189 190 191 190 190 192 193 192 188 185 185 187 189 190 194
266 253 232 252 238 224 218 213 221 233 240 252 222 231 240 319 307 269 256 264 250 232 197 187 180 175 182 189 186 189 192 192 191 192 194 194 193 191 191 191 189 192 195 197
281 275 295 280 278 230 206 217 243 250 265 252 233 245 266 339 359 30 11 356 355 324 210 184 169 157 178 188 191 191 189 190 189 189 188 191 193 193 192 191 191 191 194 193
288 282 292 297 268 249 242 212 217 222 228 245 245 243 253 289 329 6 3 345 348 352 306 195 179 180 210 203 196 192 192 190 188 187 186 188 191 193 192 189 189 190 191 185
288 267 284 282 245 256 224 210 231 236 247 244 253 249 2 342 343 349 347 340 343 347 351 30 13 9 39 134 164 185 195 189 186 186 185 184 185 186 186 187 188 187 186 184
292 269 270 269 287 288 232 229 222 234 243 244 253 267 25 355 2 358 350 351 351 0 12 22 23 42 53 68 136 184 195 194 189 188 184 183 182 181 182 183 182 181 182 182
283 262 280 268 200 26 254 263 269 274 265 240 240 249 17 9 3 359 355 357 353 2 7 15 17 21 24 25 27 346 199 202 190 181 178 180 182 181 184 183 180 182 182 180
282 254 253 265 294 296 285 284 276 254 248 254 254 276 313 330 338 343 346 350 350 351 360 360 1 1 359 2 6 348 249 204 190 179 174 178 183 184 185 183 181 182 181 180
318 265 265 278 290 289 283 284 268 250 256 261 278 285 298 309 315 323 333 341 346 352 358 351 345 343 343 350 351 347 339 203 185 180 176 182 184 180 178 176 176 177 178 180
309 275 276 275 275 280 298 314 284 270 272 273 285 288 312 316 322 331 337 341 339 341 343 340 338 337 336 337 334 327 324 327 185 181 182 177 174 174 175 173 170 169 172 176
278 267 271 278 299 286 312 320 293 292 294 274 279 290 315 317 320 324 327 325 324 327 327 327 329 327 320 314 315 306 296 283 178 176 180 170 170 169 170 167 168 172 172 168
266 259 260 283 300 248 336 355 320 300 312 313 306 313 317 317 319 325 331 325 322 323 320 322 325 325 322 316 318 314 305 193 163 162 170 172 175 174 168 167 170 171 171 170
252 248 251 260 281 295 326 346 328 294 302 336 319 322 332 339 344 352 355 342 327 322 319 320 324 321 320 321 328 5 60 92 104 127 183 190 183 177 172 173 175 173 168 167
24 268 273 283 272 303 331 334 326 295 319 346 331 325 335 345 339 333 343 342 337 333 332 334 337 339 337 333 342 58 78 81 50 316 273 189 182 176 173 175 174 170 165 161
358 345 312 289 268 299 339 338 343 357 329 335 334 333 339 338 324 323 333 341 342 345 349 350 353 355 348 345 8 63 49 10 336 350 28 103 140 150 156 158 162 161 156 151
312 293 286 273 270 301 348 359 358 324 325 331 336 339 339 337 340 342 345 346 349 357 360 359 1 0 2 8 38 52 22 2 20 49 68 87 99 107 125 137 143 149 150 149
332 319 304 265 283 330 336 331 325 326 326 332 336 337 340 339 342 346 347 348 351 356 1 2 4 4 9 16 34 42 10 23 55 69 74 83 87 90 107 127 136 139 150 158
331 330 301 294 303 319 328 331 332 332 330 333 336 337 340 339 340 343 345 346 349 354 358 2 9 14 11 12 21 25 19 38 67 74 71 77 85 82 82 91 124 149 167 171
322 328 314 299 312 320 330 335 332 333 336 339 340 338 337 337 339 340 340 341 342 349 355 2 6 6 6 9 17 17 16 33 57 60 55 58 66 76 70 54 27 255 237 224
336 314 304 298 314 309 314 327 331 332 334 336 337 339 340 342 337 338 337 338 339 346 354 358 1 4 5 11 14 12 12 26 40 40 31 30 36 32 26 44 33 24 339 322
Height
1488 1488 1483 1481 1482 1481 1480 1479 1477 1476 1481 1482 1477 1473 1472 1473 1474 1474 1473 1474 1474 1475 1475 1476 1477 1478 1480 1482 1484 1486 1488 1490 1492 1494 1495 1497 1499 1501 1503 1505 1507 1509 1510 1512
1485 1481 1479 1481 1483 1483 1482 1480 1476 1477 1481 1480 1474 1470 1467 1467 1468 1468 1469 1469 1469 1470 1471 1471 1472 1473 1475 1477 1479 1481 1483 1486 1488 1490 1492 1494 1496 1498 1499 1502 1504 1506 1508 1509
1479 1477 1480 1481 1481 1481 1479 1478 1475 1477 1478 1478 1475 1464 1459 1460 1462 1463 1464 1464 1465 1465 1466 1467 1468 1469 1470 1472 1474 1477 1479 1481 1484 1486 1488 1490 1492 1494 1496 1498 1501 1503 1504 1506
1479 1478 1480 1479 1477 1477 1474 1475 1477 1477 1477 1471 1473 1462 1451 1453 1455 1457 1458 1459 1460 1461 1462 1463 1463 1464 1466 1468 1470 1473 1475 1477 1480 1482 1483 1485 1487 1489 1491 1494 1497 1499 1501 1502
1476 1477 1477 1476 1474 1475 1473 1475 1476 1475 1474 1473 1469 1469 1448 1451 1451 1451 1454 1455 1456 1457 1458 1458 1459 1461 1463 1465 1467 1469 1471 1474 1476 1478 1480 1482 1484 1486 1489 1491 1493 1495 1497 1499
1476 1477 1476 1474 1474 1474 1475 1476 1474 1474 1474 1471 1459 1461 1445 1446 1447 1448 1451 1453 1453 1453 1454 1455 1456 1458 1460 1462 1463 1465 1467 1469 1471 1473 1476 1478 1480 1483 1485 1487 1490 1492 1494 1496
1475 1474 1475 1475 1473 1473 1473 1472 1471 1469 1466 1454 1453 1455 1445 1445 1448 1449 1450 1451 1451 1451 1451 1452 1453 1455 1456 1458 1460 1462 1464 1465 1468 1470 1472 1475 1477 1479 1482 1484 1486 1488 1490 1492
1475 1471 1472 1473 1471 1469 1469 1467 1464 1460 1452 1446 1453 1448 1443 1447 1449 1449 1450 1450 1449 1449 1449 1450 1451 1452 1453 1455 1457 1458 1460 1462 1464 1466 1469 1471 1474 1476 1478 1481 1483 1485 1486 1488
1478 1472 1473 1472 1471 1469 1467 1465 1463 1463 1460 1455 1444 1445 1445 1447 1448 1448 1449 1448 1448 1448 1448 1448 1449 1450 1451 1452 1454 1455 1457 1459 1461 1463 1466 1468 1471 1473 1475 1477 1479 1481 1483 1485
1483 1478 1473 1472 1471 1470 1467 1465 1467 1462 1456 1447 1441 1441 1441 1444 1447 1448 1448 1448 1448 1447 1447 1447 1448 1449 1449 1450 1451 1453 1455 1456 1458 1460 1462 1465 1467 1469 1472 1474 1476 1478 1480 1481
1485 1481 1474 1472 1469 1467 1469 1469 1465 1460 1454 1447 1442 1441 1443 1445 1447 1448 1449 1449 1448 1447 1447 1447 1447 1447 1448 1448 1449 1450 1452 1454 1455 1457 1459 1462 1464 1466 1469 1471 1473 1475 1476 1478
1485 1482 1475 1470 1470 1469 1468 1467 1466 1463 1458 1453 1447 1448 1448 1448 1449 1449 1449 1449 1449 1448 1447 1447 1446 1446 1446 1447 1447 1448 1449 1451 1453 1455 1457 1459 1461 1463 1465 1467 1469 1471 1473 1475
1486 1483 1475 1467 1471 1472 1470 1469 1469 1467 1462 1455 1450 1448 1450 1450 1450 1451 1451 1450 1449 1448 1447 1447 1446 1445 1445 1445 1446 1446 1447 1448 1450 1452 1454 1456 1458 1459 1462 1464 1466 1468 1470 1471
1485 1481 1477 1471 1466 1470 1471 1470 1468 1467 1463 1457 1452 1450 1451 1451 1452 1452 1452 1451 1450 1448 1447 1446 1445 1444 1444 1444 1444 1444 1445 1446 1448 1449 1451 1453 1455 1457 1459 1460 1462 1464 1466 1468
1485 1480 1477 1474 1472 1471 1470 1469 1468 1466 1462 1459 1455 1455 1453 1453 1453 1453 1452 1451 1450 1448 1447 1445 1444 1443 1443 1443 1443 1443 1444 1444 1446 1447 1448 1450 1452 1454 1456 1457 1459 1461 1463 1464
1485 1481 1478 1474 1470 1470 1470 1469 1468 1466 1464 1461 1459 1456 1456 1455 1454 1453 1452 1451 1449 1448 1447 1446 1444 1443 1442 1442 1442 1442 1442 1443 1444 1445 1446 1448 1449 1451 1452 1454 1456 1457 1459 1461
1484 1482 1478 1470 1469 1468 1469 1471 1469 1467 1465 1463 1460 1458 1456 1455 1454 1453 1452 1450 1449 1447 1446 1445 1443 1442 1441 1441 1441 1441 1441 1442 1443 1443 1444 1445 1447 1448 1449 1451 1453 1454 1456 1458
1485 1481 1477 1472 1470 1472 1471 1471 1470 1467 1465 1464 1461 1458 1457 1455 1453 1452 1451 1450 1448 1447 1445 1443 1442 1441 1441 1440 1440 1440 1440 1441 1441 1442 1443 1444 1444 1446 1447 1448 1450 1452 1454 1455
1483 1481 1477 1473 1469 1468 1470 1472 1471 1468 1465 1466 1463 1460 1458 1456 1453 1451 1451 1449 1448 1446 1444 1442 1441 1440 1440 1439 1439 1439 1439 1440 1440 1440 1441 1442 1443 1444 1445 1446 1447 1449 1451 1452
1482 1481 1478 1475 1473 1474 1474 1474 1471 1469 1465 1466 1464 1461 1459 1456 1452 1451 1451 1449 1447 1445 1443 1442 1440 1439 1439 1438 1438 1438 1438 1438 1439 1440 1440 1441 1442 1442 1443 1444 1446 1447 1449 1450
1483 1482 1481 1478 1477 1474 1478 1476 1471 1471 1471 1468 1465 1463 1460 1458 1457 1455 1451 1448 1447 1444 1442 1441 1439 1438 1437 1437 1437 1437 1437 1438 1438 1439 1439 1440 1440 1441 1441 1443 1444 1445 1446 1448
1484 1482 1483 1481 1480 1482 1481 1478 1477 1476 1473 1470 1466 1463 1461 1459 1456 1454 1451 1448 1446 1444 1442 1440 1439 1438 1437 1437 1436 1436 1436 1437 1437 1438 1438 1438 1439 1439 1440 1441 1442 1444 1445 1446
1488 1488 1485 1484 1485 1484 1483 1481 1480 1477 1473 1470 1467 1464 1462 1459 1456 1454 1451 1449 1447 1445 1443 1441 1440 1438 1437 1436 1436 1436 1436 1436 1436 1437 1437 1438 1438 1439 1440 1440 1441 1442 1443 1444
1491 1491 1488 1486 1484 1484 1483 1481 1478 1475 1473 1470 1467 1464 1462 1459 1456 1454 1451 1449 1447 1446 1444 1442 1440 1438 1437 1437 1436 1436 1436 1436 1436 1436 1437 1437 1437 1438 1439 1440 1441 1441 1442 1442
1494 1492 1489 1486 1485 1483 1481 1480 1477 1474 1471 1468 1466 1464 1461 1459 1456 1454 1452 1450 1448 1446 1444 1443 1441 1439 1438 1437 1437 1436 1436 1436 1436 1436 1436 1437 1437 1438 1439 1439 1440 1440 1441 1441
1496 1495 1492 1488 1487 1485 1482 1479 1476 1473 1470 1468 1465 1463 1461 1459 1456 1453 1451 1450 1448 1446 1444 1443 1442 1440 1439 1438 1437 1437 1437 1436 1436 1436 1437 1437 1437 1437 1438 1438 1438 1439 1439 1440